VOE1664 LIMJ-LFPO

Flight info

Callsign VOE1664
Flight time 1h 13m
Altitude 38000
Route LAGEN DCT NEDED DCT TOP DCT AOSTA DCT ORSUD DCT MOLUS DCT UNKIR DCT DJL
Aircraft A319/M-SDFGIJ1RWY/LB1

Departure

Time 2026-05-06 13:55
Airport Genoa Cristoforo Colombo Airport (LIMJ)

Arrival

Time 2026-05-06 15:09
Airport Paris-Orly Airport (LFPO)
Time Latitude Longitude Altitude Speed Heading
2026-05-06 13:39 44.41407 8.85107 18 ft 0 kts 15°
2026-05-06 13:40 44.41407 8.85106 18 ft 0 kts 15°
2026-05-06 13:46 44.41398 8.85103 18 ft 4 kts 14°
2026-05-06 13:46 44.41372 8.85094 20 ft 4 kts
2026-05-06 13:47 44.41346 8.85091 19 ft 4 kts 350°
2026-05-06 13:47 44.41326 8.85104 22 ft 3 kts 288°
2026-05-06 13:47 44.41325 8.85107 21 ft 0 kts 285°
2026-05-06 13:49 44.41328 8.85092 19 ft 4 kts 285°
2026-05-06 13:49 44.41338 8.85042 19 ft 7 kts 283°
2026-05-06 13:49 44.41333 8.84963 18 ft 10 kts 223°
2026-05-06 13:50 44.41259 8.84929 18 ft 13 kts 196°
2026-05-06 13:50 44.41225 8.84821 17 ft 15 kts 283°
2026-05-06 13:50 44.41253 8.84676 19 ft 16 kts 285°
2026-05-06 13:50 44.41285 8.84508 21 ft 19 kts 286°
2026-05-06 13:51 44.41321 8.84327 18 ft 20 kts 284°
2026-05-06 13:51 44.41360 8.84129 18 ft 22 kts 285°
2026-05-06 13:51 44.41398 8.83934 19 ft 20 kts 285°
2026-05-06 13:51 44.41436 8.83741 19 ft 21 kts 285°
2026-05-06 13:52 44.41474 8.83552 23 ft 20 kts 285°
2026-05-06 13:52 44.41509 8.83369 23 ft 19 kts 285°
2026-05-06 13:52 44.41543 8.83197 25 ft 18 kts 285°
2026-05-06 13:52 44.41579 8.83015 22 ft 21 kts 285°
2026-05-06 13:53 44.41621 8.82805 19 ft 23 kts 286°
2026-05-06 13:53 44.41663 8.82587 18 ft 21 kts 282°
2026-05-06 13:53 44.41577 8.82487 15 ft 18 kts 196°
2026-05-06 13:53 44.41522 8.82515 16 ft 8 kts 104°
2026-05-06 13:54 44.41518 8.82538 16 ft 0 kts 105°
2026-05-06 13:54 44.41518 8.82539 16 ft 2 kts 105°
2026-05-06 13:54 44.41440 8.82931 25 ft 82 kts 105°
2026-05-06 13:54 44.41223 8.84029 22 ft 149 kts 105°
2026-05-06 13:55 44.40945 8.85495 564 ft 155 kts 109°
2026-05-06 13:55 44.40641 8.86949 1237 ft 157 kts 118°
2026-05-06 13:55 44.39859 8.87943 1787 ft 160 kts 162°
2026-05-06 13:55 44.38705 8.88372 2154 ft 183 kts 165°
2026-05-06 13:56 44.37510 8.88923 3029 ft 179 kts 163°
2026-05-06 13:56 44.36352 8.89512 3951 ft 176 kts 164°
2026-05-06 13:56 44.35202 8.90112 4759 ft 178 kts 163°
2026-05-06 13:56 44.34035 8.90723 5486 ft 182 kts 163°
2026-05-06 13:57 44.32836 8.91354 6242 ft 186 kts 164°
2026-05-06 13:57 44.31616 8.91997 6941 ft 190 kts 165°
2026-05-06 13:57 44.30368 8.92658 7641 ft 193 kts 165°
2026-05-06 13:57 44.29098 8.93322 8320 ft 197 kts 168°
2026-05-06 13:58 44.27762 8.93427 8981 ft 192 kts 198°
2026-05-06 13:58 44.26587 8.92579 9704 ft 192 kts 216°
2026-05-06 13:58 44.25460 8.91513 10316 ft 199 kts 215°
2026-05-06 13:58 44.24695 8.90796 10755 ft 201 kts 215°
2026-05-06 13:59 44.23510 8.89692 11465 ft 203 kts 215°
2026-05-06 13:59 44.22329 8.88594 12187 ft 205 kts 215°
2026-05-06 13:59 44.21134 8.87483 12907 ft 207 kts 215°
2026-05-06 13:59 44.19928 8.86360 13631 ft 210 kts 215°
2026-05-06 14:00 44.18713 8.85229 14300 ft 211 kts 216°
2026-05-06 14:00 44.17493 8.84098 15016 ft 210 kts 216°
2026-05-06 14:00 44.16276 8.82970 15736 ft 210 kts 216°
2026-05-06 14:00 44.15080 8.81860 16463 ft 209 kts 217°
2026-05-06 14:01 44.14051 8.80462 17157 ft 208 kts 238°
2026-05-06 14:01 44.13543 8.78541 17613 ft 225 kts 260°
2026-05-06 14:01 44.13579 8.76225 17804 ft 252 kts 268°
2026-05-06 14:01 44.13675 8.73722 18230 ft 264 kts 267°
2026-05-06 14:02 44.13773 8.71153 18841 ft 268 kts 268°
2026-05-06 14:02 44.14200 8.68571 19473 ft 282 kts 285°
2026-05-06 14:02 44.15285 8.66203 20029 ft 304 kts 303°
2026-05-06 14:02 44.17083 8.64331 20157 ft 344 kts 325°
2026-05-06 14:03 44.19316 8.62872 20267 ft 365 kts 327°
2026-05-06 14:03 44.21684 8.61348 20399 ft 384 kts 327°
2026-05-06 14:03 44.24152 8.59759 20721 ft 395 kts 327°
2026-05-06 14:03 44.26663 8.58142 21235 ft 400 kts 327°
2026-05-06 14:04 44.29206 8.56500 21797 ft 405 kts 327°
2026-05-06 14:04 44.31770 8.54833 22398 ft 409 kts 327°
2026-05-06 14:04 44.34355 8.53141 22948 ft 413 kts 326°
2026-05-06 14:04 44.36966 8.51427 23473 ft 417 kts 326°
2026-05-06 14:05 44.39494 8.49487 23901 ft 412 kts 317°
2026-05-06 14:05 44.41747 8.47073 24310 ft 407 kts 310°
2026-05-06 14:05 44.43912 8.44490 24738 ft 410 kts 310°
2026-05-06 14:05 44.46096 8.41885 25177 ft 413 kts 310°
2026-05-06 14:06 44.48287 8.39273 25602 ft 415 kts 310°
2026-05-06 14:06 44.50493 8.36643 26016 ft 418 kts 310°
2026-05-06 14:06 44.52723 8.33989 26445 ft 422 kts 310°
2026-05-06 14:06 44.54968 8.31318 26835 ft 425 kts 310°
2026-05-06 14:07 44.57225 8.28629 27236 ft 428 kts 310°
2026-05-06 14:07 44.59498 8.25913 27631 ft 430 kts 310°
2026-05-06 14:07 44.61783 8.23175 28027 ft 434 kts 310°
2026-05-06 14:07 44.64084 8.20415 28424 ft 436 kts 310°
2026-05-06 14:08 44.66399 8.17635 28804 ft 440 kts 310°
2026-05-06 14:08 44.68732 8.14832 29208 ft 443 kts 310°
2026-05-06 14:08 44.71052 8.12048 29616 ft 446 kts 310°
2026-05-06 14:08 44.73447 8.09177 29969 ft 449 kts 310°
2026-05-06 14:09 44.75832 8.06317 30270 ft 451 kts 310°
2026-05-06 14:09 44.78222 8.03445 30565 ft 454 kts 310°
2026-05-06 14:09 44.80629 8.00547 30879 ft 456 kts 310°
2026-05-06 14:09 44.83043 7.97637 31192 ft 458 kts 310°
2026-05-06 14:10 44.85437 7.94750 31464 ft 461 kts 310°
2026-05-06 14:10 44.87873 7.91813 31886 ft 460 kts 310°
2026-05-06 14:10 44.90407 7.88772 32336 ft 461 kts 312°
2026-05-06 14:10 44.92953 7.86256 32750 ft 471 kts 321°
2026-05-06 14:11 44.95920 7.84191 33137 ft 480 kts 330°
2026-05-06 14:11 44.99010 7.82408 33559 ft 480 kts 330°
2026-05-06 14:11 45.02100 7.80613 33963 ft 479 kts 330°
2026-05-06 14:11 45.05179 7.78813 34338 ft 478 kts 330°
2026-05-06 14:12 45.08241 7.77015 34744 ft 476 kts 330°
2026-05-06 14:12 45.11298 7.75219 35116 ft 475 kts 330°
2026-05-06 14:12 45.14345 7.73430 35462 ft 474 kts 330°
2026-05-06 14:12 45.17390 7.71641 35764 ft 474 kts 330°
2026-05-06 14:13 45.20432 7.69855 36113 ft 473 kts 331°
2026-05-06 14:13 45.23469 7.68070 36426 ft 471 kts 331°
2026-05-06 14:13 45.26490 7.66288 36738 ft 470 kts 331°
2026-05-06 14:13 45.29508 7.64505 37066 ft 469 kts 331°
2026-05-06 14:14 45.32513 7.62730 37378 ft 468 kts 331°
2026-05-06 14:14 45.35515 7.60952 37732 ft 466 kts 331°
2026-05-06 14:14 45.38502 7.59179 37835 ft 464 kts 331°
2026-05-06 14:14 45.41477 7.57412 37842 ft 463 kts 331°
2026-05-06 14:15 45.47409 7.53886 37850 ft 462 kts 331°
2026-05-06 14:15 45.53332 7.50355 37862 ft 461 kts 332°
2026-05-06 14:16 45.59250 7.46818 37858 ft 460 kts 331°
2026-05-06 14:16 45.65154 7.43274 37869 ft 461 kts 331°
2026-05-06 14:17 45.71067 7.39734 37867 ft 460 kts 330°
2026-05-06 14:17 45.76970 7.36194 37883 ft 460 kts 332°
2026-05-06 14:18 45.82467 7.31741 37871 ft 451 kts 319°
2026-05-06 14:18 45.87573 7.26531 37864 ft 451 kts 319°
2026-05-06 14:19 45.92705 7.21301 37884 ft 453 kts 319°
2026-05-06 14:19 45.97887 7.16014 37913 ft 462 kts 319°
2026-05-06 14:20 46.03187 7.10582 37918 ft 472 kts 319°
2026-05-06 14:20 46.08553 7.05080 37921 ft 475 kts 319°
2026-05-06 14:21 46.13899 6.99580 37924 ft 475 kts 319°
2026-05-06 14:21 46.19323 6.93992 37918 ft 476 kts 319°
2026-05-06 14:22 46.24704 6.88430 37908 ft 476 kts 319°
2026-05-06 14:22 46.30087 6.82841 37913 ft 477 kts 319°
2026-05-06 14:23 46.35473 6.77241 37922 ft 477 kts 320°
2026-05-06 14:23 46.40871 6.71617 37921 ft 478 kts 319°
2026-05-06 14:24 46.45499 6.64899 37919 ft 467 kts 300°
2026-05-06 14:24 46.48796 6.56842 37923 ft 464 kts 295°
2026-05-06 14:25 46.52000 6.48712 37929 ft 464 kts 295°
2026-05-06 14:25 46.55210 6.40571 37948 ft 465 kts 295°
2026-05-06 14:26 46.58423 6.32413 37938 ft 465 kts 295°
2026-05-06 14:26 46.61631 6.24228 37940 ft 466 kts 295°
2026-05-06 14:27 46.64824 6.16031 37939 ft 466 kts 295°
2026-05-06 14:27 46.68011 6.07821 37957 ft 466 kts 296°
2026-05-06 14:28 46.71192 5.99597 37946 ft 466 kts 295°
2026-05-06 14:28 46.74384 5.91360 37947 ft 467 kts 295°
2026-05-06 14:29 46.77573 5.83104 37944 ft 467 kts 295°
2026-05-06 14:29 46.80783 5.74870 37937 ft 469 kts 300°
2026-05-06 14:30 46.85179 5.67755 37946 ft 476 kts 314°
2026-05-06 14:30 46.90025 5.61144 37925 ft 476 kts 313°
2026-05-06 14:31 46.94853 5.54493 37918 ft 477 kts 313°
2026-05-06 14:31 46.99674 5.47832 37914 ft 477 kts 313°
2026-05-06 14:32 47.04473 5.41212 37914 ft 477 kts 313°
2026-05-06 14:32 47.09297 5.34530 37914 ft 474 kts 314°
2026-05-06 14:33 47.11667 5.31237 37757 ft 469 kts 313°
2026-05-06 14:33 47.14054 5.27913 37358 ft 474 kts 314°
2026-05-06 14:33 47.16448 5.24577 36588 ft 475 kts 314°
2026-05-06 14:33 47.18848 5.21232 35924 ft 473 kts 314°
2026-05-06 14:34 47.21222 5.17929 35373 ft 469 kts 314°
2026-05-06 14:34 47.23590 5.14628 34704 ft 468 kts 314°
2026-05-06 14:34 47.25942 5.11342 34121 ft 465 kts 314°
2026-05-06 14:34 47.28275 5.08043 33237 ft 466 kts 313°
2026-05-06 14:35 47.30558 5.04652 32295 ft 468 kts 313°
2026-05-06 14:35 47.32804 5.01181 31487 ft 467 kts 313°
2026-05-06 14:35 47.35018 4.97687 30890 ft 463 kts 313°
2026-05-06 14:35 47.37209 4.94217 30193 ft 462 kts 314°
2026-05-06 14:36 47.39386 4.90788 29587 ft 456 kts 314°
2026-05-06 14:36 47.41557 4.87406 29019 ft 450 kts 314°
2026-05-06 14:36 47.43708 4.84081 28402 ft 445 kts 314°
2026-05-06 14:36 47.45833 4.80800 27850 ft 439 kts 314°
2026-05-06 14:37 47.47934 4.77570 27298 ft 434 kts 314°
2026-05-06 14:37 47.50008 4.74367 26771 ft 428 kts 314°
2026-05-06 14:37 47.52031 4.71225 26553 ft 416 kts 314°
2026-05-06 14:37 47.53996 4.68158 26289 ft 407 kts 314°
2026-05-06 14:38 47.55933 4.65132 26031 ft 403 kts 314°
2026-05-06 14:38 47.57854 4.62130 25772 ft 400 kts 314°
2026-05-06 14:38 47.59765 4.59143 25505 ft 398 kts 314°
2026-05-06 14:38 47.61653 4.56188 25255 ft 396 kts 314°
2026-05-06 14:39 47.63517 4.53271 25002 ft 394 kts 314°
2026-05-06 14:39 47.65420 4.50288 24739 ft 391 kts 314°
2026-05-06 14:39 47.67257 4.47405 24486 ft 389 kts 314°
2026-05-06 14:39 47.69137 4.44459 24231 ft 387 kts 314°
2026-05-06 14:40 47.70957 4.41603 23985 ft 385 kts 315°
2026-05-06 14:40 47.72787 4.38724 23732 ft 382 kts 314°
2026-05-06 14:40 47.74617 4.35839 23482 ft 380 kts 314°
2026-05-06 14:40 47.76435 4.32969 23209 ft 377 kts 314°
2026-05-06 14:41 47.78228 4.30134 22961 ft 376 kts 314°
2026-05-06 14:41 47.80020 4.27299 22718 ft 375 kts 314°
2026-05-06 14:41 47.81775 4.24516 22482 ft 373 kts 314°
2026-05-06 14:41 47.83550 4.21705 22238 ft 372 kts 313°
2026-05-06 14:42 47.85316 4.18908 21994 ft 370 kts 313°
2026-05-06 14:42 47.86985 4.16002 21761 ft 368 kts 305°
2026-05-06 14:42 47.88254 4.12704 21514 ft 367 kts 294°
2026-05-06 14:42 47.89072 4.09113 21274 ft 366 kts 283°
2026-05-06 14:43 47.89610 4.05414 21036 ft 365 kts 283°
2026-05-06 14:43 47.90147 4.01728 20796 ft 363 kts 282°
2026-05-06 14:43 47.90681 3.98060 20560 ft 362 kts 283°
2026-05-06 14:43 47.91214 3.94397 20325 ft 360 kts 283°
2026-05-06 14:44 47.91571 3.91936 20168 ft 360 kts 283°
2026-05-06 14:44 47.92092 3.88348 19937 ft 358 kts 283°
2026-05-06 14:44 47.92624 3.84676 19687 ft 357 kts 283°
2026-05-06 14:45 47.93661 3.77462 19236 ft 354 kts 283°
2026-05-06 14:45 47.94167 3.73923 19009 ft 353 kts 283°
2026-05-06 14:45 47.94676 3.70363 18790 ft 351 kts 283°
2026-05-06 14:45 47.95184 3.66790 18556 ft 350 kts 283°
2026-05-06 14:46 47.95689 3.63244 18323 ft 349 kts 283°
2026-05-06 14:46 47.96258 3.59743 18083 ft 346 kts 290°
2026-05-06 14:46 47.97248 3.56499 17847 ft 345 kts 301°
2026-05-06 14:46 47.98669 3.53615 17314 ft 344 kts 313°
2026-05-06 14:47 48.00338 3.51076 16872 ft 340 kts 315°
2026-05-06 14:47 48.01989 3.48571 16405 ft 338 kts 315°
2026-05-06 14:47 48.03626 3.46077 15985 ft 334 kts 315°
2026-05-06 14:47 48.05254 3.43591 15527 ft 333 kts 314°
2026-05-06 14:48 48.06872 3.41114 15049 ft 333 kts 314°
2026-05-06 14:48 48.08477 3.38659 14714 ft 327 kts 314°
2026-05-06 14:48 48.10070 3.36221 14208 ft 325 kts 314°
2026-05-06 14:48 48.11645 3.33809 13669 ft 322 kts 314°
2026-05-06 14:49 48.13208 3.31412 13189 ft 321 kts 314°
2026-05-06 14:49 48.14761 3.29028 12774 ft 318 kts 314°
2026-05-06 14:49 48.16299 3.26665 12347 ft 315 kts 314°
2026-05-06 14:49 48.17809 3.24340 12095 ft 307 kts 314°
2026-05-06 14:50 48.19273 3.22083 11970 ft 297 kts 314°
2026-05-06 14:50 48.20694 3.19891 11825 ft 290 kts 313°
2026-05-06 14:50 48.22113 3.17703 11505 ft 289 kts 314°
2026-05-06 14:50 48.23508 3.15550 11211 ft 286 kts 313°
2026-05-06 14:51 48.24867 3.13449 10896 ft 283 kts 313°
2026-05-06 14:51 48.26230 3.11345 10618 ft 280 kts 313°
2026-05-06 14:51 48.27587 3.09252 10323 ft 279 kts 313°
2026-05-06 14:51 48.28933 3.07175 10043 ft 277 kts 313°
2026-05-06 14:52 48.30262 3.05123 9814 ft 274 kts 313°
2026-05-06 14:52 48.31599 3.03056 9691 ft 274 kts 313°
2026-05-06 14:52 48.32927 3.01003 9553 ft 274 kts 313°
2026-05-06 14:52 48.34255 2.98947 9416 ft 275 kts 313°
2026-05-06 14:53 48.35603 2.96860 9279 ft 274 kts 313°
2026-05-06 14:53 48.36929 2.94802 9138 ft 274 kts 313°
2026-05-06 14:53 48.38255 2.92743 9005 ft 274 kts 313°
2026-05-06 14:53 48.39559 2.90714 8874 ft 273 kts 313°
2026-05-06 14:54 48.40874 2.88666 8737 ft 272 kts 314°
2026-05-06 14:54 48.42189 2.86619 8606 ft 272 kts 314°
2026-05-06 14:54 48.43498 2.84578 8472 ft 271 kts 314°
2026-05-06 14:54 48.44705 2.82405 8334 ft 271 kts 302°
2026-05-06 14:55 48.45466 2.79819 8198 ft 272 kts 286°
2026-05-06 14:55 48.45721 2.76989 8063 ft 273 kts 274°
2026-05-06 14:55 48.45800 2.74103 7928 ft 272 kts 274°
2026-05-06 14:55 48.45878 2.71253 7792 ft 272 kts 274°
2026-05-06 14:56 48.45957 2.68406 7656 ft 272 kts 274°
2026-05-06 14:56 48.46036 2.65560 7522 ft 272 kts 274°
2026-05-06 14:56 48.46121 2.62716 7386 ft 272 kts 275°
2026-05-06 14:56 48.46244 2.59876 7257 ft 272 kts 276°
2026-05-06 14:57 48.46388 2.57033 7124 ft 272 kts 276°
2026-05-06 14:57 48.46518 2.54191 6996 ft 273 kts 272°
2026-05-06 14:57 48.46110 2.51399 6810 ft 277 kts 248°
2026-05-06 14:57 48.45225 2.48820 6564 ft 277 kts 243°
2026-05-06 14:58 48.44294 2.46281 6325 ft 276 kts 243°
2026-05-06 14:58 48.43363 2.43750 6138 ft 276 kts 243°
2026-05-06 14:58 48.42444 2.41258 5924 ft 275 kts 243°
2026-05-06 14:58 48.41515 2.38746 5711 ft 274 kts 243°
2026-05-06 14:59 48.40846 2.36092 5499 ft 270 kts 264°
2026-05-06 14:59 48.40906 2.33321 5292 ft 264 kts 287°
2026-05-06 14:59 48.41670 2.30868 5094 ft 258 kts 309°
2026-05-06 14:59 48.42838 2.28837 4891 ft 256 kts 313°
2026-05-06 15:00 48.44018 2.26839 4718 ft 255 kts 313°
2026-05-06 15:00 48.45198 2.24839 4586 ft 255 kts 313°
2026-05-06 15:00 48.46371 2.22842 4452 ft 254 kts 313°
2026-05-06 15:00 48.47536 2.20848 4326 ft 254 kts 313°
2026-05-06 15:01 48.48703 2.18846 4189 ft 254 kts 313°
2026-05-06 15:01 48.49867 2.16847 4070 ft 253 kts 313°
2026-05-06 15:01 48.51022 2.14856 3983 ft 248 kts 313°
2026-05-06 15:01 48.52114 2.12968 3998 ft 230 kts 313°
2026-05-06 15:02 48.53143 2.11192 4003 ft 222 kts 313°
2026-05-06 15:02 48.54158 2.09442 4002 ft 221 kts 313°
2026-05-06 15:02 48.55173 2.07694 4004 ft 222 kts 313°
2026-05-06 15:02 48.56187 2.05945 4008 ft 222 kts 313°
2026-05-06 15:03 48.57201 2.04199 4008 ft 221 kts 313°
2026-05-06 15:03 48.58222 2.02455 4003 ft 221 kts 315°
2026-05-06 15:03 48.59502 2.01288 4002 ft 218 kts 350°
2026-05-06 15:03 48.60969 2.01663 4006 ft 221 kts 30°
2026-05-06 15:04 48.61975 2.03432 4012 ft 228 kts 58°
2026-05-06 15:04 48.62706 2.05558 4007 ft 228 kts 60°
2026-05-06 15:04 48.63447 2.07687 3873 ft 228 kts 58°
2026-05-06 15:04 48.64198 2.09795 3598 ft 227 kts 58°
2026-05-06 15:05 48.64931 2.11846 3312 ft 217 kts 58°
2026-05-06 15:05 48.65637 2.13824 3016 ft 211 kts 57°
2026-05-06 15:05 48.66323 2.15743 2739 ft 204 kts 58°
2026-05-06 15:05 48.66980 2.17587 2493 ft 193 kts 58°
2026-05-06 15:06 48.67582 2.19278 2235 ft 178 kts 57°
2026-05-06 15:06 48.68161 2.20904 1992 ft 169 kts 58°
2026-05-06 15:06 48.68700 2.22417 1770 ft 162 kts 58°
2026-05-06 15:06 48.69218 2.23871 1545 ft 152 kts 57°
2026-05-06 15:07 48.69703 2.25235 1313 ft 144 kts 56°
2026-05-06 15:07 48.70171 2.26540 1085 ft 138 kts 57°
2026-05-06 15:07 48.70615 2.27787 903 ft 131 kts 57°
2026-05-06 15:07 48.71044 2.28998 730 ft 133 kts 58°
2026-05-06 15:08 48.71480 2.30232 577 ft 132 kts 58°
2026-05-06 15:08 48.71914 2.31462 389 ft 132 kts 57°
2026-05-06 15:08 48.72337 2.32645 299 ft 117 kts 60°
2026-05-06 15:08 48.72655 2.33546 296 ft 72 kts 61°
2026-05-06 15:09 48.72774 2.34074 294 ft 41 kts 82°
2026-05-06 15:09 48.72803 2.34371 291 ft 22 kts 83°
2026-05-06 15:09 48.72825 2.34604 291 ft 22 kts 82°
2026-05-06 15:09 48.72847 2.34831 291 ft 19 kts 81°
2026-05-06 15:10 48.72864 2.35016 295 ft 16 kts 82°
2026-05-06 15:10 48.72880 2.35181 296 ft 15 kts 82°
2026-05-06 15:10 48.72895 2.35343 294 ft 16 kts 81°
2026-05-06 15:10 48.72915 2.35493 293 ft 14 kts 61°
2026-05-06 15:11 48.73001 2.35549 292 ft 14 kts 31°
2026-05-06 15:11 48.73065 2.35670 292 ft 15 kts 57°
2026-05-06 15:11 48.73123 2.35808 293 ft 15 kts 58°
2026-05-06 15:11 48.73151 2.35901 293 ft 5 kts 114°
2026-05-06 15:12 48.73127 2.35916 294 ft 4 kts 165°
2026-05-06 15:12 48.73105 2.35924 295 ft 2 kts 166°
2026-05-06 15:12 48.73101 2.35926 294 ft 0 kts 166°